Regional Weather Roundup
Issued by NWS Albany, NY

Home | Current Version | Previous Version | Graphics & Text | Print | Product List | Glossary Off
Versions: 1 2 3 4 5 6 7 8 9 10 11 12 13 14 15 16 17 18 19 20 21 22 23 24 25 26 27 28 29 30 31 32 33 34 35 36 37 38 39 40 41 42 43 44 45 46 47 48 49 50

000
ASUS41 KALY 231210
RWRALY

NEW YORK STATE HOURLY WEATHER ROUNDUP
NATIONAL WEATHER SERVICE ALBANY NY
800 AM EDT SAT JUL 23 2016

NOTE: "FAIR" INDICATES FEW OR NO CLOUDS BELOW 12,000 FEET WITH NO
SIGNIFICANT WEATHER AND/OR NO OBSTRUCTIONS TO VISIBILITY.

NYZ032-033-038>043-046>054-057>066-NYZ062>081-082-084-231300-
EAST


CITY           SKY/WX    TMP DP  RH WIND       PRES   REMARKS
ALBANY         MOSUNNY   76  61  59 W16       29.82S
GLENS FALLS    SUNNY     76  65  68 CALM      29.80S
POUGHKEEPSIE   SUNNY     79  66  64 S5        29.84S
NEWBURGH       SUNNY     75  68  78 W7        29.88S
MONTGOMERY     SUNNY     77  66  68 MISG      29.87R
WHITE PLAINS   SUNNY     80  65  59 W7        29.86S
ISLIP          SUNNY     83  65  54 NW12      29.84R
NEW YORK CITY  MOSUNNY   84  64  50 NW6       29.85S
CENTRAL PARK   MOSUNNY   81  64  56 W8        29.89R
$$

NYZ005>009-017-018-044>046-055-056-231300-
CENTRAL


CITY           SKY/WX    TMP DP  RH WIND       PRES   REMARKS
FULTON         SUNNY     78  65  63 W8        29.86F
SYRACUSE       MOSUNNY   75  62  64 W6        29.86F
ROME           PTSUNNY   70  63  78 W6        29.88R
ELMIRA         SUNNY     74  65  73 SW8       29.92S
BINGHAMTON     SUNNY     72  62  71 W7        29.94S
MONTICELLO     SUNNY     72  64  78 NW6       29.94R
$$

NYZ026>034-041>043-087-231300-
NORTH


CITY           SKY/WX    TMP DP  RH WIND       PRES   REMARKS
WATERTOWN      SUNNY     74  63  68 SW5       29.84F
FORT DRUM      NOT AVBL
MASSENA        SUNNY     71  64  78 W8        29.80F
SARANAC LAKE   SUNNY     67  61  81 W8        29.85S
PLATTSBURGH    CLOUDY    69  64  84 S5        29.78R
$$

NYZ001>004-010>016-019>021-085-231300-
WEST


CITY           SKY/WX    TMP DP  RH WIND       PRES   REMARKS
NIAGARA FALLS  MOSUNNY   78  58  49 W8        29.92S
BUFFALO        MOSUNNY   77  60  55 SW5       29.93S
DUNKIRK        SUNNY     75  71  87 SW7       29.96R
JAMESTOWN      SUNNY     72  66  83 CALM      30.01S
WELLSVILLE     SUNNY     72  64  76 NW10      30.03R
ROCHESTER      SUNNY     74  64  71 W9        29.90F
PENN YAN       SUNNY     77  57  50 W9        29.93S
$$

             KEY
       WCI = WIND CHILL INDEX
       VSB = VISIBILITY
       HX  = HEAT INDEX
$$



USA.gov is the U.S. government's official web portal to all federal, state and local government web resources and services.